1501110000.4,2820,18.19,73182.8,0.69,-6.47,-9.01,0,*77
1501110001.6,2821,18.25,73186.3,0.69,-6.27,-9.05,0,*74
1501110002.77,2822,18.25,73184.0,0.69,-6.39,-9.01,0,*7C
1501110003.97,2823,18.25,73186.0,0.67,-6.31,-8.85,0,*76
1501110005.17,2824,18.19,73184.3,0.69,-6.09,-8.81,0,*70
1501110006.35,2825,18.25,73188.0,0.69,-6.09,-8.89,0,*79
1501110007.54,2826,18.25,73186.3,0.69,-6.27,-9.05,0,*73
1501110008.71,2827,18.19,73186.8,0.69,-6.09,-8.67,0,*7B
1501110009.89,2828,18.19,73186.0,0.69,-6.09,-8.89,0,*74
1501110011.06,2829,18.25,73192.8,0.69,-6.09,-8.63,0,*71
1501110012.22,2830,18.25,73190.8,0.69,-6.01,-8.55,0,*74
1501110013.39,2831,18.19,73188.3,0.69,-6.01,-8.55,0,*75
1501110014.56,2832,18.25,73188.8,0.73,-5.97,-8.59,0,*7D
1501110015.75,2833,18.19,73190.0,0.73,-5.97,-8.51,0,*74
1501110016.95,2834,18.25,73194.5,0.73,-5.93,-8.45,0,*72
1501110018.16,2835,18.25,73190.5,0.77,-5.81,-8.41,0,*70
1501110019.33,2836,18.25,73188.8,0.69,-6.13,-8.89,0,*70
1501110020.52,2837,18.19,73188.0,0.69,-6.23,-8.67,0,*72
1501110021.69,2838,18.19,73192.8,0.69,-6.09,-8.63,0,*71
1501110022.86,2839,18.19,73188.8,0.69,-6.13,-8.67,0,*7F
1501110024.08,2840,18.25,73192.8,0.67,-6.19,-8.71,0,*72
1501110025.27,2841,18.25,73190.5,0.69,-6.23,-8.55,0,*72
1501110026.45,2842,18.19,73188.8,0.69,-6.27,-8.55,0,*75
1501110027.66,2843,18.19,73190.3,0.69,-6.09,-8.51,0,*7C
1501110028.87,2844,18.19,73190.8,0.69,-6.27,-8.51,0,*77
1501110030.05,2845,18.25,73192.3,0.73,-6.09,-8.45,0,*74
1501110031.24,2846,18.25,73190.3,0.69,-6.05,-8.51,0,*75
1501110032.44,2847,18.25,73192.8,0.67,-6.31,-8.71,0,*7F
1501110033.61,2848,18.19,73188.5,0.69,-6.35,-8.67,0,*7D
1501110034.79,2849,18.25,73188.5,0.69,-6.27,-8.55,0,*7E
1501110036.01,2850,18.19,73188.8,0.69,-6.27,-8.51,0,*72
1501110037.23,2851,18.19,73186.0,0.69,-6.23,-8.51,0,*77
1501110038.45,2852,18.25,73188.5,0.69,-6.27,-8.51,0,*70
1501110039.67,2853,18.19,73186.3,0.69,-6.23,-8.51,0,*75
1501110040.87,2854,18.25,73190.0,0.73,-6.19,-8.37,0,*70
1501110042.06,2855,18.25,73194.0,0.73,-6.19,-8.33,0,*75
1501110043.25,2856,18.25,73188.3,0.73,-6.23,-8.45,0,*7E
1501110044.46,2857,18.19,73186.8,0.77,-6.19,-8.33,0,*73
1501110045.65,2858,18.19,73188.8,0.69,-6.23,-8.41,0,*7F
1501110046.85,2859,18.25,73188.3,0.69,-6.35,-8.51,0,*78
1501110048.05,2860,18.25,73188.3,0.73,-6.23,-8.45,0,*7B
1501110049.23,2861,18.25,73188.5,0.73,-6.23,-8.33,0,*7B
1501110050.41,2862,18.25,73190.3,0.73,-6.09,-8.21,0,*73
1501110051.58,2863,18.25,73194.8,0.77,-6.05,-8.17,0,*7F
1501110052.75,2864,18.25,73188.8,0.73,-6.05,-8.17,0,*7C
1501110053.95,2865,18.19,73192.8,0.77,-6.05,-7.99,0,*70
1501110055.14,2866,18.19,73194.8,0.73,-6.05,-7.95,0,*7B
1501110056.34,2867,18.19,73188.8,0.73,-6.09,-8.03,0,*76
1501110057.51,2868,18.19,73188.3,0.73,-6.09,-8.21,0,*79
1501110058.7,2869,18.25,73188.8,0.73,-6.23,-8.33,0,*73
1501110059.89,2870,18.19,73186.3,0.73,-6.23,-8.37,0,*7F
1501110061.09,2871,18.19,73186.8,0.73,-6.23,-8.37,0,*7E
1501110062.28,2872,18.19,73190.3,0.73,-6.19,-8.25,0,*77
1501110063.49,2873,18.25,73192.3,0.77,-6.01,-7.91,0,*7B
1501110064.7,2874,18.25,73188.5,0.73,-5.93,-7.83,0,*73
1501110065.9,2875,18.19,73188.3,0.77,-6.01,-8.03,0,*79
1501110067.12,2876,18.19,73190.0,0.73,-6.19,-7.95,0,*77
1501110068.29,2877,18.19,73190.0,0.73,-6.05,-7.83,0,*7C
1501110069.49,2878,18.19,73190.3,0.77,-6.05,-7.95,0,*70
1501110070.7,2879,18.19,73194.8,0.77,-6.01,-7.99,0,*79
1501110071.92,2880,18.19,73194.8,0.73,-6.19,-7.95,0,*7E
1501110073.12,2881,18.25,73194.5,0.73,-6.19,-7.83,0,*78
1501110074.33,2882,18.19,73190.5,0.77,-6.13,-7.91,0,*76
1501110075.51,2883,18.19,73194.8,0.77,-6.13,-7.87,0,*70
1501110076.71,2884,18.19,73192.5,0.73,-6.09,-7.95,0,*7B
1501110077.94,2885,18.19,73194.5,0.77,-6.19,-7.91,0,*7B
1501110079.18,2886,18.19,73192.8,0.77,-6.19,-7.91,0,*78
1501110080.38,2887,18.19,73192.5,0.73,-6.35,-8.07,0,*73
1501110081.58,2888,18.19,73194.5,0.73,-6.47,-8.07,0,*79
1501110082.79,2889,18.25,73194.3,0.77,-6.39,-7.99,0,*7D
1501110083.99,2890,18.19,73192.5,0.77,-6.27,-7.87,0,*75
1501110085.2,2891,18.25,73198.5,0.77,-6.31,-7.91,0,*74
1501110086.41,2892,18.25,73198.3,0.77,-6.43,-7.95,0,*76
1501110087.6,2893,18.25,73196.8,0.73,-6.43,-7.91,0,*77
1501110088.79,2894,18.25,73196.8,0.73,-6.55,-8.03,0,*73
1501110090.0,2895,18.19,73192.5,0.77,-6.55,-7.91,0,*72
1501110091.21,2896,18.19,73198.5,0.77,-6.55,-8.03,0,*75
1501110092.43,2897,18.19,73194.8,0.73,-6.63,-8.07,0,*71
1501110093.63,2898,18.25,73198.3,0.73,-6.73,-8.07,0,*7F
1501110094.8,2899,18.19,73198.3,0.77,-6.69,-8.17,0,*70
1501110095.97,2900,18.19,73192.5,0.73,-6.85,-8.17,0,*77
1501110097.14,2901,18.19,73194.8,0.73,-6.85,-8.21,0,*73
1501110098.33,2902,18.19,73190.8,0.77,-6.81,-8.21,0,*70
1501110099.51,2903,18.19,73192.8,0.77,-6.85,-8.21,0,*75
1501110100.68,2904,18.25,73196.0,0.73,-6.89,-8.25,0,*7E
1501110101.84,2905,18.19,73196.3,0.73,-6.89,-8.25,0,*7F
1501110103.04,2906,18.25,73192.5,0.77,-7.05,-8.33,0,*7A
1501110104.22,2907,18.19,73192.8,0.73,-7.11,-8.45,0,*7B
1501110105.4,2908,18.25,73188.5,0.77,-7.19,-8.41,0,*7C
1501110106.59,2909,18.19,73184.8,0.77,-7.11,-8.41,0,*75
1501110107.76,2910,18.19,73188.3,0.73,-7.19,-8.41,0,*71
1501110108.96,2911,18.19,73186.5,0.77,-7.31,-8.41,0,*7E
1501110110.17,2912,18.19,73184.5,0.73,-7.39,-8.51,0,*70
1501110111.36,2913,18.25,73188.0,0.73,-7.43,-8.63,0,*7D
1501110112.56,2914,18.19,73182.5,0.73,-7.57,-8.63,0,*7F
1501110113.72,2915,18.19,73184.0,0.73,-7.53,-8.63,0,*7A
1501110114.88,2916,18.25,73190.5,0.73,-7.53,-8.63,0,*79
1501110116.06,2917,18.19,73188.0,0.77,-7.53,-8.67,0,*78
1501110117.25,2918,18.19,73186.3,0.73,-7.57,-8.63,0,*73
1501110118.45,2919,18.25,73190.8,0.73,-7.57,-8.63,0,*72
1501110119.65,2920,18.19,73186.8,0.77,-7.65,-8.59,0,*74
1501110120.84,2921,18.19,73184.5,0.73,-7.69,-8.75,0,*73
1501110122.04,2922,18.19,73184.3,0.77,-7.65,-8.71,0,*7C
1501110123.25,2923,18.19,73186.8,0.77,-7.65,-8.71,0,*7D
1501110124.44,2924,18.25,73186.0,0.73,-7.77,-8.85,0,*76
1501110125.64,2925,18.19,73186.3,0.77,-7.77,-8.71,0,*78
1501110126.88,2926,18.19,73186.3,0.77,-7.73,-8.81,0,*70
1501110128.1,2927,18.19,73190.3,0.77,-7.91,-8.81,0,*7D
1501110129.3,2928,18.19,73186.3,0.77,-7.91,-8.93,0,*71
1501110130.51,2929,18.19,73184.3,0.77,-7.91,-8.93,0,*70
1501110131.71,2930,18.19,73184.3,0.77,-7.91,-8.93,0,*78
1501110132.92,2931,18.19,73190.3,0.77,-7.91,-8.85,0,*7E
1501110134.14,2932,18.25,73190.8,0.77,-7.99,-8.81,0,*71
1501110135.35,2933,18.19,73188.8,0.77,-7.99,-8.85,0,*74
1501110136.56,2934,18.19,73186.3,0.77,-7.99,-8.85,0,*73
1501110137.77,2935,18.19,73184.5,0.77,-7.91,-8.85,0,*7A
1501110138.95,2936,18.19,73184.5,0.77,-7.87,-8.71,0,*75
1501110140.15,2937,18.25,73190.0,0.77,-7.77,-8.59,0,*71
1501110141.39,2938,18.19,73186.0,0.79,-7.73,-8.45,0,*79
1501110142.59,2939,18.25,73188.5,0.73,-7.65,-8.37,0,*70
1501110143.77,2940,18.25,73186.8,0.77,-7.49,-8.29,0,*7B
1501110144.97,2941,18.19,73184.5,0.77,-7.35,-8.21,0,*79
1501110146.16,2942,18.19,73184.8,0.77,-7.19,-8.17,0,*71
1501110147.34,2943,18.25,73184.5,0.77,-7.19,-8.21,0,*75
1501110148.53,2944,18.19,73186.0,0.77,-7.11,-8.21,0,*7A
1501110149.72,2945,18.25,73186.0,0.73,-7.01,-8.33,0,*7D
1501110150.92,2946,18.19,73184.5,0.77,-7.05,-8.33,0,*7E
1501110152.11,2947,18.25,73186.0,0.77,-7.11,-8.41,0,*7F
1501110153.31,2948,18.19,73184.5,0.77,-7.05,-8.33,0,*70
1501110154.52,2949,18.19,73186.5,0.77,-6.97,-8.21,0,*78
1501110155.73,2950,18.19,73182.8,0.77,-6.97,-8.21,0,*70
1501110156.96,2951,18.19,73182.8,0.77,-6.93,-8.11,0,*76
1501110158.17,2952,18.19,73180.8,0.77,-6.85,-8.11,0,*72
1501110159.37,2953,18.19,73180.0,0.73,-6.85,-8.11,0,*77
1501110160.55,2954,18.25,73182.3,0.77,-6.81,-8.17,0,*76
1501110161.73,2955,18.19,73178.5,0.77,-6.85,-8.17,0,*73
1501110162.94,2956,18.25,73182.8,0.77,-6.81,-8.11,0,*72
1501110164.14,2957,18.19,73182.3,0.77,-6.73,-8.03,0,*7D
1501110165.35,2958,18.19,73176.5,0.77,-6.81,-7.91,0,*7B
1501110166.58,2959,18.19,73180.0,0.79,-6.69,-7.77,0,*7A
1501110167.82,2960,18.19,73176.5,0.79,-6.59,-7.73,0,*77
1501110169.03,2961,18.19,73172.0,0.79,-6.51,-7.53,0,*7C
1501110170.27,2962,18.19,73174.0,0.79,-6.31,-7.31,0,*7D
1501110171.53,2963,18.19,73176.3,0.79,-6.19,-6.93,0,*7F
1501110172.75,2964,18.19,73176.0,0.79,-6.01,-6.81,0,*72
1501110173.96,2965,18.19,73176.5,0.77,-5.77,-6.51,0,*72
1501110175.19,2966,18.19,73178.0,0.77,-5.65,-6.27,0,*73
1501110176.37,2967,18.25,73180.3,0.77,-5.47,-6.05,0,*72
1501110177.63,2968,18.19,73178.3,0.79,-5.23,-5.77,0,*77
1501110178.87,2969,18.25,73180.5,0.79,-5.03,-5.47,0,*77
1501110180.13,2970,18.19,73184.8,0.79,-4.89,-5.27,0,*7A
1501110181.39,2971,18.19,73182.3,0.79,-4.85,-5.23,0,*73
1501110182.65,2972,18.19,73182.8,0.79,-4.81,-5.03,0,*76
1501110183.91,2973,18.19,73180.3,0.79,-4.69,-4.89,0,*72
1501110185.12,2974,18.19,73178.5,0.81,-4.53,-4.69,0,*75
1501110186.36,2975,18.19,73182.0,0.79,-4.57,-4.69,0,*77
1501110187.54,2976,18.19,73186.3,0.81,-4.45,-4.57,0,*7D
1501110188.72,2977,18.19,73186.3,0.81,-4.41,-4.45,0,*7B
1501110189.9,2978,18.19,73182.8,0.81,-4.41,-4.45,0,*74
1501110191.1,2979,18.19,73184.5,0.79,-4.45,-4.49,0,*7A
1501110192.28,2980,18.19,73186.3,0.81,-4.41,-4.45,0,*73
1501110193.49,2981,18.19,73186.3,0.79,-4.41,-4.45,0,*75
1501110194.67,2982,18.19,73186.3,0.81,-4.33,-4.33,0,*75
1501110195.89,2983,18.25,73188.8,0.79,-4.25,-4.25,0,*73
1501110197.11,2984,18.19,73186.5,0.79,-4.25,-4.21,0,*70
1501110198.29,2985,18.19,73182.0,0.81,-4.17,-4.05,0,*71
1501110199.48,2986,18.19,73184.3,0.81,-4.05,-3.95,0,*7F
1501110200.69,2987,18.19,73184.5,0.79,-4.09,-3.95,0,*75
1501110201.9,2988,18.19,73182.8,0.79,-4.09,-3.91,0,*7E
1501110203.09,2989,18.19,73184.8,0.81,-3.91,-3.75,0,*74
1501110204.29,2990,18.19,73188.0,0.81,-3.91,-3.75,0,*7C
1501110205.5,2991,18.19,73186.0,0.81,-3.87,-3.63,0,*7D
1501110206.71,2992,18.19,73188.0,0.81,-3.91,-3.55,0,*7C
1501110207.92,2993,18.19,73188.0,0.81,-3.95,-3.51,0,*7D
1501110209.13,2994,18.19,73190.0,0.81,-3.91,-3.51,0,*7E
1501110210.35,2995,18.19,73188.8,0.81,-3.95,-3.43,0,*78
1501110211.56,2996,18.19,73188.8,0.81,-3.95,-3.43,0,*7B
1501110212.74,2997,18.25,73190.0,0.81,-4.05,-3.39,0,*79
1501110213.95,2998,18.19,73186.3,0.83,-4.05,-3.31,0,*7C
1501110215.14,2999,18.19,73190.5,0.81,-4.09,-3.27,0,*74
1501110216.36,3000,18.19,73190.0,0.83,-3.95,-3.27,0,*7C
1501110217.57,3001,18.19,73188.5,0.83,-4.05,-3.19,0,*7E
1501110218.78,3002,18.19,73188.3,0.83,-4.09,-3.19,0,*71
1501110219.98,3003,18.19,73190.3,0.83,-4.09,-3.19,0,*70
1501110221.19,3004,18.19,73184.8,0.83,-4.17,-3.19,0,*78
1501110222.4,3005,18.25,73192.0,0.83,-4.17,-3.19,0,*79
1501110223.61,3006,18.19,73188.5,0.83,-4.17,-3.19,0,*7A
1501110224.82,3007,18.19,73190.0,0.83,-4.21,-3.15,0,*72
1501110226.01,3008,18.19,73188.5,0.85,-4.05,-2.99,0,*78
1501110227.23,3009,18.19,73184.8,0.83,-3.95,-3.03,0,*73
1501110228.45,3010,18.19,73186.0,0.83,-3.95,-2.99,0,*79
1501110229.67,3011,18.25,73190.0,0.83,-3.79,-2.91,0,*72
1501110230.89,3012,18.19,73184.5,0.85,-3.75,-2.75,0,*71
1501110232.16,3013,18.25,73190.5,0.83,-3.67,-2.63,0,*72
1501110233.4,3014,18.19,73190.5,0.85,-3.51,-2.51,0,*77
1501110234.59,3015,18.19,73184.8,0.85,-3.39,-2.35,0,*7A
1501110235.78,3016,18.19,73188.0,0.85,-3.27,-2.23,0,*71
1501110237.0,3017,18.19,73188.0,0.83,-3.15,-2.15,0,*72
1501110238.24,3018,18.19,73186.3,0.83,-2.99,-2.03,0,*7F
1501110239.47,3019,18.19,73186.5,0.83,-2.87,-1.91,0,*79
1501110240.69,3020,18.19,73188.0,0.85,-2.63,-1.75,0,*75
1501110241.9,3021,18.19,73188.5,0.85,-2.51,-1.71,0,*71
1501110243.08,3022,18.19,73188.8,0.85,-2.39,-1.59,0,*76
1501110244.29,3023,18.19,73190.5,0.83,-2.27,-1.55,0,*72
1501110245.5,3024,18.19,73188.3,0.85,-2.11,-1.51,0,*72
1501110246.72,3025,18.25,73190.0,0.85,-2.11,-1.51,0,*73
1501110247.96,3026,18.19,73186.0,0.83,-1.99,-1.59,0,*7D
1501110249.2,3027,18.19,73190.0,0.87,-1.99,-1.63,0,*71
1501110250.43,3028,18.19,73190.8,0.87,-1.87,-1.75,0,*76
1501110251.67,3029,18.19,73190.0,0.85,-1.87,-1.83,0,*7C
1501110252.91,3030,18.19,73184.8,0.85,-2.07,-2.07,0,*70
1501110254.12,3031,18.19,73190.5,0.85,-2.07,-2.19,0,*7E
1501110255.36,3032,18.19,73184.5,0.87,-2.19,-2.51,0,*7C
1501110256.6,3033,18.19,73188.5,0.87,-2.31,-2.71,0,*75
1501110257.77,3034,18.19,73186.8,0.89,-2.35,-2.79,0,*70
1501110259.0,3035,18.25,73188.8,0.87,-2.59,-3.11,0,*7A
1501110260.2,3036,18.19,73184.0,0.89,-2.71,-3.23,0,*7C
1501110261.43,3037,18.19,73188.5,0.87,-2.99,-3.63,0,*71
1501110262.64,3038,18.19,73188.5,0.87,-3.27,-3.75,0,*7D
1501110263.88,3039,18.25,73186.3,0.87,-3.47,-4.13,0,*7D
1501110265.1,3040,18.19,73186.0,0.87,-3.83,-4.37,0,*7D
1501110266.32,3041,18.19,73188.3,0.89,-4.01,-4.57,0,*79
1501110267.53,3042,18.19,73186.5,0.89,-4.25,-4.77,0,*7E
1501110268.74,3043,18.19,73184.8,0.89,-4.53,-5.07,0,*78
1501110269.98,3044,18.25,73186.0,0.87,-4.65,-5.15,0,*77
1501110271.21,3045,18.25,73186.5,0.89,-4.73,-5.23,0,*7A
1501110272.44,3046,18.19,73186.0,0.87,-4.93,-5.43,0,*7F
1501110273.62,3047,18.25,73188.5,0.89,-4.99,-5.47,0,*7E
1501110274.82,3048,18.19,73186.3,0.89,-4.99,-5.69,0,*7D
1501110276.08,3049,18.19,73186.0,0.87,-5.15,-5.73,0,*7C
1501110277.31,3050,18.19,73184.3,0.89,-5.23,-5.77,0,*7B
1501110278.58,3051,18.19,73184.3,0.87,-5.31,-5.81,0,*7E
1501110279.84,3052,18.19,73184.5,0.87,-5.31,-5.81,0,*7D
1501110281.07,3053,18.19,73184.3,0.89,-5.27,-5.77,0,*7C
1501110282.3,3054,18.19,73182.0,0.87,-5.39,-5.73,0,*7E
1501110283.53,3055,18.19,73180.3,0.87,-5.43,-5.73,0,*72
1501110284.73,3056,18.19,73184.5,0.89,-5.39,-5.65,0,*75
1501110285.92,3057,18.19,73182.5,0.89,-5.47,-5.47,0,*7D
1501110287.1,3058,18.19,73186.0,0.89,-5.39,-5.47,0,*7B
1501110288.28,3059,18.19,73182.0,0.89,-5.39,-5.35,0,*7F
1501110289.52,3060,18.19,73180.8,0.89,-5.27,-5.27,0,*79
1501110290.79,3061,18.19,73182.3,0.87,-5.27,-5.27,0,*76
1501110292.05,3062,18.25,73184.3,0.87,-5.07,-5.15,0,*76
1501110293.32,3063,18.19,73182.3,0.87,-5.07,-5.03,0,*70
1501110294.5,3064,18.25,73186.8,0.89,-4.99,-4.99,0,*7D
1501110295.7,3065,18.19,73180.8,0.89,-4.89,-4.99,0,*7D
1501110296.96,3066,18.19,73180.3,0.87,-4.93,-5.03,0,*79
1501110298.22,3067,18.19,73182.5,0.87,-4.89,-5.03,0,*73
1501110299.48,3068,18.19,73182.0,0.87,-4.73,-4.81,0,*72
1501110300.69,3069,18.19,73186.0,0.89,-4.61,-4.73,0,*73
1501110301.9,3070,18.19,73184.0,0.89,-4.57,-4.69,0,*75
1501110303.07,3071,18.19,73184.5,0.89,-4.45,-4.61,0,*7F
1501110304.29,3072,18.19,73184.3,0.87,-4.41,-4.53,0,*77
1501110305.49,3073,18.19,73186.3,0.87,-4.37,-4.41,0,*74
1501110306.68,3074,18.19,73186.8,0.89,-4.21,-4.33,0,*7F
1501110307.88,3075,18.19,73188.0,0.87,-4.17,-4.17,0,*73
1501110309.07,3076,18.19,73186.0,0.89,-3.95,-4.09,0,*7C
1501110310.29,3077,18.19,73186.0,0.87,-3.75,-3.91,0,*7B
1501110311.52,3078,18.25,73188.5,0.89,-3.67,-3.71,0,*77
1501110312.74,3079,18.19,73186.8,0.89,-3.59,-3.67,0,*7C
1501110314.0,3080,18.19,73186.3,0.87,-3.51,-3.59,0,*71
1501110315.23,3081,18.19,73184.3,0.89,-3.43,-3.55,0,*71
1501110316.43,3082,18.19,73184.0,0.89,-3.35,-3.55,0,*73
1501110317.69,3083,18.19,73184.8,0.87,-3.47,-3.47,0,*7A
1501110318.89,3084,18.19,73184.3,0.89,-3.31,-3.47,0,*72
1501110320.09,3085,18.25,73186.3,0.89,-3.31,-3.43,0,*77
1501110321.29,3086,18.19,73184.5,0.89,-3.23,-3.47,0,*73
1501110322.49,3087,18.25,73186.8,0.89,-3.23,-3.47,0,*72
1501110323.7,3088,18.19,73188.3,0.91,-3.15,-3.39,0,*78
1501110324.9,3089,18.19,73184.5,0.89,-3.19,-3.43,0,*71
1501110326.13,3090,18.19,73186.3,0.87,-3.15,-3.51,0,*78
1501110327.33,3091,18.19,73184.5,0.89,-3.19,-3.47,0,*7C
1501110328.53,3092,18.19,73184.5,0.89,-3.19,-3.47,0,*7F
1501110329.73,3093,18.25,73190.8,0.89,-3.23,-3.59,0,*78
1501110330.94,3094,18.19,73186.8,0.89,-3.07,-3.59,0,*79
1501110332.15,3095,18.19,73186.8,0.89,-3.11,-3.59,0,*7F
1501110333.35,3096,18.25,73188.3,0.89,-3.19,-3.59,0,*74
1501110334.56,3097,18.19,73186.3,0.89,-3.03,-3.59,0,*7E
1501110335.76,3098,18.19,73184.5,0.89,-3.07,-3.59,0,*75
1501110337.0,3099,18.19,73184.8,0.91,-2.99,-3.51,0,*73
1501110338.2,3100,18.19,73188.8,0.89,-2.95,-3.43,0,*74
1501110339.41,3101,18.19,73188.8,0.91,-2.91,-3.39,0,*75
1501110340.62,3102,18.19,73190.8,0.91,-2.91,-3.27,0,*79
1501110341.83,3103,18.19,73192.0,0.91,-2.91,-3.31,0,*7F
1501110343.03,3104,18.19,73186.0,0.91,-3.03,-3.31,0,*72
1501110344.24,3105,18.19,73188.3,0.91,-3.15,-3.31,0,*74
1501110345.46,3106,18.19,73186.3,0.91,-3.15,-3.39,0,*7F
1501110346.69,3107,18.19,73186.0,0.91,-3.19,-3.43,0,*7F
1501110347.93,3108,18.19,73188.5,0.91,-3.31,-3.43,0,*7A
1501110349.16,3109,18.19,73190.3,0.91,-3.39,-3.55,0,*74
1501110350.39,3110,18.19,73186.5,0.93,-3.51,-3.55,0,*70
1501110351.62,3111,18.19,73190.8,0.93,-3.51,-3.67,0,*70
1501110352.86,3112,18.19,73188.8,0.91,-3.51,-3.75,0,*72
1501110354.09,3113,18.19,73192.5,0.91,-3.55,-3.83,0,*7E
1501110355.31,3114,18.25,73194.8,0.91,-3.75,-4.05,0,*72
1501110356.5,3115,18.25,73192.3,0.93,-3.83,-4.17,0,*7B
1501110357.72,3116,18.19,73186.3,0.91,-3.95,-4.29,0,*70
1501110358.93,3117,18.19,73188.8,0.91,-4.09,-4.41,0,*7D
1501110360.15,3118,18.19,73194.0,0.91,-4.09,-4.41,0,*72
1501110361.34,3119,18.19,73192.5,0.93,-4.21,-4.53,0,*78
1501110362.58,3120,18.19,73194.3,0.91,-4.29,-4.69,0,*71
1501110363.82,3121,18.19,73190.5,0.91,-4.33,-4.69,0,*7B
1501110365.03,3122,18.19,73194.0,0.93,-4.45,-4.73,0,*70
1501110366.24,3123,18.19,73194.5,0.93,-4.41,-4.81,0,*78
1501110367.47,3124,18.19,73188.8,0.91,-4.53,-4.81,0,*7E
1501110368.69,3125,18.19,73190.3,0.93,-4.57,-4.93,0,*7A
1501110369.9,3126,18.19,73194.5,0.91,-4.57,-4.99,0,*71
1501110371.12,3127,18.19,73192.0,0.91,-4.69,-4.99,0,*7D
1501110372.33,3128,18.19,73194.0,0.93,-4.69,-4.99,0,*70
1501110373.53,3129,18.19,73188.5,0.93,-4.69,-4.99,0,*71
1501110374.75,3130,18.19,73188.8,0.91,-4.69,-4.99,0,*7B
1501110375.93,3131,18.25,73194.5,0.93,-4.65,-4.99,0,*74
1501110377.17,3132,18.19,73190.0,0.93,-4.73,-5.07,0,*76
1501110378.44,3133,18.19,73186.5,0.91,-4.73,-5.07,0,*75
1501110379.69,3134,18.19,73188.0,0.91,-4.69,-5.11,0,*7E
1501110380.93,3135,18.19,73188.8,0.93,-4.69,-5.07,0,*7A
1501110382.19,3136,18.19,73190.5,0.91,-4.69,-5.07,0,*7B
1501110383.43,3137,18.19,73188.3,0.91,-4.65,-5.07,0,*76
1501110384.67,3138,18.19,73192.5,0.93,-4.69,-5.07,0,*77
1501110385.9,3139,18.19,73194.5,0.93,-4.69,-5.07,0,*76
1501110387.11,3140,18.19,73190.0,0.93,-4.65,-5.11,0,*73
1501110388.35,3141,18.19,73186.8,0.91,-4.65,-5.11,0,*70
1501110389.61,3142,18.19,73190.3,0.91,-4.69,-5.23,0,*7E
1501110390.85,3143,18.19,73188.0,0.91,-4.65,-5.19,0,*7A
1501110392.09,3144,18.19,73186.3,0.91,-4.65,-5.19,0,*7D
1501110393.33,3145,18.19,73184.0,0.91,-4.65,-5.11,0,*74
1501110394.57,3146,18.19,73182.5,0.91,-4.53,-5.07,0,*75
1501110395.79,3147,18.19,73186.3,0.93,-4.57,-5.11,0,*75
1501110397.01,3148,18.19,73190.5,0.93,-4.57,-5.19,0,*72
1501110398.22,3149,18.19,73184.0,0.93,-4.57,-5.19,0,*73
1501110399.44,3150,18.19,73184.0,0.93,-4.57,-5.19,0,*7B
1501110400.68,3151,18.19,73190.0,0.91,-4.57,-5.19,0,*78
1501110401.92,3152,18.19,73188.3,0.91,-4.57,-5.11,0,*73
1501110403.14,3153,18.19,73188.3,0.93,-4.53,-5.07,0,*73
1501110404.35,3154,18.19,73188.0,0.93,-4.53,-5.11,0,*73
1501110405.56,3155,18.19,73184.8,0.93,-4.53,-5.19,0,*7A
1501110406.78,3156,18.19,73184.8,0.93,-4.57,-5.23,0,*74
1501110407.99,3157,18.19,73184.8,0.93,-4.53,-5.19,0,*78
1501110409.2,3158,18.19,73186.5,0.93,-4.53,-5.19,0,*77
1501110410.43,3159,18.19,73188.5,0.91,-4.45,-5.19,0,*73
1501110411.64,3160,18.25,73188.8,0.93,-4.41,-5.19,0,*7F
1501110412.86,3161,18.19,73188.8,0.93,-4.41,-5.11,0,*76
1501110414.07,3162,18.19,73186.0,0.93,-4.41,-5.19,0,*7D
1501110415.28,3163,18.19,73186.3,0.93,-4.45,-5.23,0,*71
1501110416.45,3164,18.19,73186.8,0.93,-4.45,-5.35,0,*71
1501110417.63,3165,18.19,73190.8,0.93,-4.45,-5.35,0,*70
1501110418.81,3166,18.25,73190.5,0.93,-4.45,-5.35,0,*73
1501110420.03,3167,18.19,73188.0,0.93,-4.33,-5.31,0,*77
1501110421.24,3168,18.19,73188.3,0.93,-4.29,-5.31,0,*73
1501110422.46,3169,18.19,73190.3,0.93,-4.33,-5.31,0,*79
1501110423.67,3170,18.19,73190.5,0.93,-4.29,-5.31,0,*7A
1501110424.86,3171,18.25,73194.0,0.93,-4.29,-5.35,0,*7F
1501110426.07,3172,18.19,73192.8,0.91,-4.29,-5.35,0,*7E
1501110427.29,3173,18.19,73192.5,0.93,-4.29,-5.31,0,*79
1501110428.5,3174,18.19,73190.3,0.91,-4.29,-5.51,0,*7A
1501110429.72,3175,18.19,73190.5,0.91,-4.33,-5.51,0,*70
1501110430.91,3176,18.19,73190.8,0.93,-4.29,-5.51,0,*7A
1501110432.1,3177,18.19,73190.5,0.93,-4.29,-5.51,0,*7B
1501110433.32,3178,18.19,73188.8,0.93,-4.29,-5.61,0,*77
1501110434.53,3179,18.19,73188.5,0.93,-4.29,-5.65,0,*72
1501110435.74,3180,18.19,73184.8,0.93,-4.33,-5.65,0,*7F
1501110436.98,3181,18.19,73186.5,0.91,-4.29,-5.73,0,*70
1501110438.18,3182,18.19,73188.3,0.93,-4.29,-5.73,0,*71
1501110439.43,3183,18.19,73186.3,0.91,-4.33,-5.89,0,*7C
1501110440.65,3184,18.19,73190.3,0.93,-4.33,-5.89,0,*79
1501110441.83,3185,18.19,73184.8,0.93,-4.41,-6.01,0,*7E
1501110443.01,3186,18.19,73188.3,0.93,-4.41,-5.97,0,*71
1501110444.18,3187,18.19,73186.3,0.93,-4.45,-6.01,0,*78
1501110445.36,3188,18.19,73184.5,0.93,-4.53,-6.13,0,*73
1501110446.57,3189,18.19,73184.8,0.93,-4.53,-6.27,0,*75
1501110447.78,3190,18.19,73184.0,0.93,-4.57,-6.27,0,*79
1501110448.99,3191,18.19,73184.8,0.93,-4.57,-6.27,0,*78
1501110450.2,3192,18.19,73188.0,0.91,-4.65,-6.35,0,*7B
1501110451.41,3193,18.19,73184.5,0.93,-4.69,-6.43,0,*75
1501110452.61,3194,18.19,73188.0,0.93,-4.81,-6.43,0,*74
1501110453.85,3195,18.19,73186.8,0.91,-4.73,-6.55,0,*7D
1501110455.08,3196,18.25,73188.8,0.91,-4.81,-6.51,0,*77
1501110456.31,3197,18.19,73188.3,0.91,-4.81,-6.51,0,*76
1501110457.55,3198,18.19,73184.8,0.91,-4.81,-6.55,0,*7D
1501110458.78,3199,18.19,73186.8,0.93,-4.81,-6.63,0,*7B
1501110460.01,3200,18.19,73186.5,0.93,-4.81,-6.63,0,*78
1501110461.23,3201,18.19,73186.0,0.93,-4.93,-6.63,0,*7A
1501110462.49,3202,18.19,73184.0,0.91,-4.81,-6.63,0,*78
1501110463.72,3203,18.19,73188.8,0.91,-4.81,-6.69,0,*73
1501110464.92,3204,18.19,73184.8,0.93,-4.81,-6.69,0,*76
1501110466.15,3205,18.19,73188.0,0.91,-4.85,-6.69,0,*71
1501110467.35,3206,18.19,73186.3,0.93,-4.85,-6.77,0,*7F
1501110468.58,3207,18.19,73186.8,0.91,-4.85,-6.77,0,*7C
1501110469.78,3208,18.19,73190.3,0.93,-4.85,-6.69,0,*7E
1501110471.0,3209,18.19,73184.8,0.91,-4.93,-6.77,0,*75
1501110472.23,3210,18.19,73186.5,0.91,-4.93,-6.77,0,*7D
1501110473.46,3211,18.19,73188.3,0.91,-4.93,-6.77,0,*7C
1501110474.69,3212,18.19,73186.8,0.91,-4.85,-6.77,0,*78
1501110475.92,3213,18.19,73190.5,0.91,-4.93,-6.77,0,*7E
1501110477.12,3214,18.19,73188.0,0.93,-4.93,-6.69,0,*74
1501110478.32,3215,18.19,73190.5,0.93,-4.85,-6.69,0,*72
1501110479.57,3216,18.19,73188.3,0.91,-4.81,-6.63,0,*7D
1501110480.78,3217,18.19,73190.8,0.93,-4.73,-6.55,0,*76
1501110482.01,3218,18.19,73188.3,0.91,-4.69,-6.43,0,*77
1501110483.24,3219,18.19,73190.0,0.91,-4.73,-6.39,0,*70
1501110484.44,3220,18.19,73194.3,0.93,-4.73,-6.39,0,*78
1501110485.68,3221,18.19,73190.5,0.91,-4.73,-6.43,0,*76
1501110486.91,3222,18.19,73194.0,0.91,-4.81,-6.39,0,*75
1501110488.14,3223,18.19,73192.5,0.91,-4.85,-6.51,0,*7E
1501110489.34,3224,18.19,73190.3,0.93,-4.93,-6.51,0,*7C
1501110490.55,3225,18.19,73188.3,0.93,-4.93,-6.55,0,*79
1501110491.81,3226,18.19,73194.8,0.91,-5.11,-6.63,0,*76
1501110493.02,3227,18.19,73192.8,0.93,-5.19,-6.77,0,*78
1501110494.26,3228,18.19,73194.0,0.91,-5.31,-6.77,0,*7F
1501110495.46,3229,18.19,73192.3,0.91,-5.43,-6.89,0,*7A
1501110496.68,3230,18.19,73194.0,0.91,-5.47,-6.89,0,*76
1501110497.9,3231,18.19,73194.0,0.91,-5.51,-6.81,0,*78
1501110499.16,3232,18.19,73192.0,0.91,-5.65,-6.93,0,*7F
1501110500.41,3233,18.19,73194.3,0.91,-5.73,-7.05,0,*77
1501110501.64,3234,18.19,73192.0,0.93,-5.77,-7.05,0,*76
1501110502.85,3235,18.19,73194.8,0.91,-5.97,-7.19,0,*76
1501110504.07,3236,18.19,73196.0,0.91,-6.01,-7.19,0,*79
1501110505.31,3237,18.19,73192.8,0.91,-6.09,-7.31,0,*7A
1501110506.55,3238,18.19,73194.3,0.91,-6.09,-7.31,0,*75
1501110507.81,3239,18.19,73196.0,0.91,-6.23,-7.43,0,*79
1501110509.05,3240,18.19,73192.5,0.91,-6.27,-7.49,0,*79
1501110510.28,3241,18.19,73196.3,0.93,-6.27,-7.43,0,*70
1501110511.49,3242,18.19,73196.8,0.91,-6.39,-7.49,0,*74
1501110512.73,3243,18.19,73194.8,0.91,-6.43,-7.61,0,*72
1501110513.98,3244,18.19,73190.5,0.91,-6.51,-7.61,0,*76
1501110515.2,3245,18.19,73194.8,0.93,-6.51,-7.61,0,*75
1501110516.46,3246,18.19,73192.0,0.91,-6.63,-7.73,0,*76
1501110517.69,3247,18.19,73190.5,0.91,-6.63,-7.83,0,*78
1501110518.91,3248,18.19,73192.8,0.91,-6.77,-7.87,0,*76